Regional Weather Roundup
Issued by NWS

Home | Current Version | Previous Version | Text Only | Print | Product List | Glossary On
Versions: 1 2 3 4 5 6 7 8 9 10 11 12 13 14 15 16 17 18 19 20 21 22 23 24 25 26 27 28
000
ASUS46 KSEW 221310
RWRWA

WASHINGTON REGIONAL WEATHER ROUNDUP
NATIONAL WEATHER SERVICE SEATTLE WA
500 AM PST THU FEB 22 2018

NOTE:"FAIR" INDICATES FEW OR NO CLOUDS BELOW 12,000 FEET WITH NO
SIGNIFICANT WEATHER AND/OR OBSTRUCTIONS TO VISIBILITY.

WAZ507-509-555>559-221400-
SEATTLE, TACOMA, EVERETT, AND VICINITY

CITY           SKY/WX    TMP DP  RH WIND       PRES   REMARKS
EVERETT        CLOUDY    26  24  92 NW7       30.20S
BOEING FIELD   FAIR      30  24  78 N5        30.23R
RENTON         FAIR      30  25  81 N5        30.23R
SEATAC AIRPORT MOCLDY    28  23  81 N9        30.20R
JBLM-MCCHORD   CLOUDY    29  29  99 NE6       30.20R
PUYALLUP       CLOUDY    28  28 100 CALM      30.19R
BREMERTON      FAIR      27  24  89 NE13G20   30.19S WCI  16
JBLM-FT LEWIS  CLOUDY    31  31  99 N7        30.19R
TACOMA NARROWS CLOUDY    30  27  88 N12       30.20R WCI  20
$$

WAZ001-503-506-510-514-515-221400-
NORTH INTERIOR

CITY           SKY/WX    TMP DP  RH WIND       PRES   REMARKS
BELLINGHAM     FAIR      27  14  58 N16G26    30.26R WCI  15
FRIDAY HARBOR  FAIR      29  23  78 N8        30.29R
EASTSOUND      FAIR      32  19  59 VRB6G14   30.29R
PORT ANGELES   FAIR      31  24  75 VRB3      30.29R
EDIZ HOOK      CLOUDY    33  25  73 NE9       30.30R
PORT TOWNSEND  MOCLDY    28  23  80 VRB6      30.27R
NAS WHIDBEY    FAIR      30  18  60 N14       30.29S WCI  19
ARLINGTON      FAIR      20  19  96 CALM      30.24R
BURLINGTON     CLEAR     21  19  93 N5        30.26R
$$

WAZ020-022-039-040-504-511-512-221400-
SOUTHWEST INTERIOR

CITY           SKY/WX    TMP DP  RH WIND       PRES   REMARKS
SHELTON        FAIR      30  24  78 CALM      30.17R
OLYMPIA        CLOUDY    31  27  85 NE8G18    30.20R
CHEHALIS       LGT RAIN  32  32 100 N8        30.18S
KELSO          FLURRIES  32  31  96 N6        30.16R
VANCOUVER      CLOUDY    33  32  96 CALM      30.13R
SCAPPOOSE, OR  LGT SNOW  32  31  96 NW3       30.14R FOG
PORTLAND, OR   FLURRIES  32  30  92 E5        30.13R
$$

WAZ021-516-517-221400-
WASHINGTON COAST

CITY           SKY/WX    TMP DP  RH WIND       PRES   REMARKS
FORKS          FAIR      31  24  75 NE12G24   30.24R WCI  22
HOQUIAM        FAIR      31  28  89 NE5       30.20R
ASTORIA, OR    CLOUDY    34  31  88 NE18      30.14R WCI  23
$$

WAZ019-023-024-040-567>569-221400-
CASCADE MOUNTAINS AND COLUMBIA GORGE

CITY           SKY/WX    TMP DP  RH WIND       PRES   REMARKS
STAMPEDE PASS  NOT AVBL
TROUTDALE, OR  CLOUDY    32  27  81 E18       30.13R WCI  20
HOOD RIVER, OR LGT SNOW  27  25  93 E3        30.18R
THE DALLES, OR LGT SNOW  27  24  89 CALM      30.21R FOG
$$

WAZ026-027-041>044-520-521-221400-
EAST SLOPES

CITY           SKY/WX    TMP DP  RH WIND       PRES   REMARKS
OMAK           FAIR      15  12  88 N12       30.26R WCI   2
WENATCHEE      CLOUDY    20  17  88 CALM      30.23R
ELLENSBURG     CLOUDY    22  17  81 N5        30.14R
YAKIMA         LGT SNOW  27  19  72 N8        30.20R
SUNNYSIDE ARPT CLOUDY    23  20  91 S7        30.21R
YAKIMA TC      FLURRIES  23  16  74 E10       30.16R WCI  12
$$

WAZ028-034-035-221400-
COLUMBIA BASIN

CITY           SKY/WX    TMP DP  RH WIND       PRES   REMARKS
EPHRATA        FAIR      20  10  65 N15       30.20R WCI   6
MOSES LAKE     FAIR      15  12  88 N7        30.21R
PASCO          CLOUDY    26  20  77 N5        30.23R
RICHLAND ARPT  CLOUDY    24  21  87 NW9       30.24R
HERMISTON, OR  CLOUDY    22  21  96 CALM      30.19R
$$

WAZ036>038-221400-
NORTHEAST WASHINGTON

CITY           SKY/WX    TMP DP  RH WIND       PRES   REMARKS
SPOKANE GEIGER FLURRIES  15  12  88 N7        30.09R
SPOKANE FELTS  CLOUDY    18  12  77 CALM      30.13S
FAIRCHILD AFB  MOCLDY    10  10  98 N6        30.07S
COEURDALENE,ID FLURRIES  15  12  88 NE14      30.10S WCI   0
DEER PARK      CLOUDY    16  10  77 N7        30.12R
$$

WAZ029>033-221400-
SOUTHEAST WASHINGTON

CITY           SKY/WX    TMP DP  RH WIND       PRES   REMARKS
PULLMAN        LGT SNOW  16  13  88 N7        30.05S FOG
LEWISTON, ID   LGT SNOW  25  23  92 W5        30.11S FOG
WALLA WALLA    LGT SNOW  25  22  88 S5        30.14R FOG
PENDLETON, OR  FLURRIES  22  19  89 NW5       30.12R
$$




USA.gov is the U.S. government's official web portal to all federal, state and local government web resources and services.